Location: Adamstown South Public School
(32.9318°S, 151.7012°E)
Time: 17:42:42
(UTC+00:00)

Cosmos 1943 Rocket - Pass Details

Date: 07 June 2020
Orbit: 810 x 845 km, 71.0° (Epoch: 04 July)

Event Time Altitude Azimuth Distance (km) Brightness Sun altitude
Rises 07:19:41 0° 185° (S) 3,367 5.1 -5.8°
Reaches altitude 10° 07:22:43 10° 170° (S) 2,425 4.3 -6.4°
Maximum altitude 07:26:54 21° 120° (ESE) 1,745 3.3 -7.2°
Drops below altitude 10° 07:31:03 10° 71° (ENE) 2,404 4.1 -8.0°
Sets 07:34:01 0° 55° (NE) 3,329 5.0 -8.6°
